Home > Weather > Knox > Past weeks

Flag for USA Weather for the Past 2 Weeks in Knox, Indiana, USA

Now
47 °F

More clouds than sun.


Feels Like: 40 °F
Forecast: 42 / 51 °F
Wind: 16 mph from North

Location: Porter County Municipal Airport

Current Time: May 4, 2016 at 3:18:37 PM

Latest Report: May 4, 2016 at 12:56 PM


Visibility: 10 mi

Pressure: 29.76 "Hg

Humidity: 66%

Dew Point: 36 °F

Location of KnoxLocation

Historic Weather in Knox — Graph

°F

Knox Temperature Yesterday

Maximum temperature yesterday: 65 °F (at 3:56 PM)
Minimum temperature yesterday: 42 °F (at 5:56 AM)
Average temperature yesterday: 56 °F

High & Low Weather Summary for the Past Weeks

 TemperatureHumidityPressure
High81 °F (Apr 25, 3:56 PM)100% (Apr 22, 1:56 AM)30.23 "Hg (Apr 22, 1:56 AM)
Low37 °F (Apr 23, 4:56 AM)30% (May 3, 1:56 PM)29.61 "Hg (May 4, 4:51 AM)
Average53 °F76%29.95 "Hg
* Reported Apr 19 12:56 PM — May 4 12:56 PM, Knox, Weather by CustomWeather, © 2016

Note: Actual official high and low records may vary slightly from our data, if they occured in-between our weather recording intervals... More about our weather records

Advertising

Knox Weather History for the Previous 24 Hours

Scroll right to see more
 ConditionsComfort  
Time TempWeatherWind HumidityBarometerVisibility
12:56 PM
Wed, May 4
47 °FMore clouds than sun.16 mph66%29.76 "Hg10 mi
11:56 AM45 °FOvercast.14 mph74%29.76 "Hg10 mi
10:56 AM45 °FOvercast.18 mph76%29.74 "Hg10 mi
9:56 AM44 °FMostly cloudy.18 mph79%29.73 "Hg10 mi
8:56 AM42 °FLow clouds.17 mph85%29.71 "Hg10 mi
7:56 AM43 °FLow clouds.17 mph89%29.69 "Hg10 mi
6:56 AM45 °FLow clouds.12 mph97%29.65 "Hg9 mi
5:56 AM47 °FLight rain. More clouds than sun.8 mph93%29.62 "Hg7 mi
4:51 AM50 °FRain. Fog.9 mph93%29.61 "Hg4 mi
3:56 AM50 °FOvercast.6 mph93%29.61 "Hg10 mi
2:56 AM51 °FRain. Mostly cloudy.17 mph83%29.64 "Hg5 mi
1:56 AM55 °FMostly cloudy.16 mph59%29.66 "Hg10 mi
12:56 AM55 °FMostly cloudy.10 mph62%29.67 "Hg10 mi
11:56 PM
Tue, May 3
55 °FOvercast.8 mph62%29.71 "Hg10 mi
10:56 PM56 °FOvercast.8 mph60%29.74 "Hg10 mi
9:56 PM57 °FOvercast.8 mph58%29.77 "Hg10 mi
8:56 PM58 °FOvercast.8 mph56%29.78 "Hg10 mi
7:56 PM60 °FOvercast.7 mph47%29.80 "Hg10 mi
6:56 PM62 °FOvercast.6 mph43%29.80 "Hg10 mi
5:56 PM63 °FOvercast.12 mph40%29.83 "Hg10 mi
4:56 PM63 °FMore clouds than sun.12 mph40%29.84 "Hg10 mi
3:56 PM65 °FOvercast.5 mph33%29.85 "Hg10 mi
Weather by CustomWeather, © 2016

See weather overviewHow to use our weather pages